Weather in Kamenolomny

Russia / Rostov Oblast     47°39′57″N   40°12′06″E
В апреле 2022 года жителям России запретили посещать сайт meteo.paraplan.net по решению Генеральной прокуратуры. Аудитория сайта уменьшилась в 10 раз. Владельцы сайта не видят смысла в поддержке погодного сервера в таких условиях. Сайт будет закрыт в октябре.
temp.,
°C
wind,
m/s
gust,
m/s
humid.,
%
clouds,
%
prec.,
mm/h
press.,
hPa
HPBL,
m
30 september, fri
fri3000:00+17ese11744 0.0 101611
03:00+16ese1178100 0.0 101711
06:00+16se1182100 0.0 101812
09:00+18se2368100 0.0 1018304
12:00+22s23515 0.0 10181005
15:00+24sw22410 0.0 10181480
18:00+22sse11476 0.0 101911
21:00+20se115274 0.0 102011
1 october, sat
sat100:00+19ese225689 0.0 102025
03:00+17se116175 0.0 102017
06:00+17s116481 0.0 102113
09:00+21s34514 0.0 1021241
12:00+25ssw45405 0.0 1020889
15:00+26sw5639100 0.0 10191366
18:00+23sw3656100 0.0 1018299
21:00+21wsw2561100 0.0 1018137
2 october, sun
sun200:00+20wsw236690 0.0 101784
03:00+18sw2372100 0.0 101665
06:00+18ssw2276100 0.0 101549
09:00+20s3566100 0.0 1014288
12:00+24ssw465092 0.0 1012801
15:00+26ssw4641100 0.0 10091781
18:00+24sse3745100 0.0 1007260
21:00+23s41045100 0.0 1005351
3 october, mon
mon300:00+21sse51249100 0.0 1003456
03:00+20sse3654100 0.0 1002228
06:00+18ssw61380100 0.6 10031016
09:00+17wsw5882100 1.9 1005682
12:00+18wsw566953 0.5 1007985
15:00+19wsw575699 0.6 10081491
18:00+15w476783 0.1 1012675
21:00+15wsw2558100 0.1 1013520
4 october, tue
tue400:00+14wsw24588 0.0 1014135
03:00+13w246621 0.0 1016171
06:00+12w23723 0.0 1017121
09:00+15sw34610 0.0 1018607
12:00+18sw454821 0.0 10181643
15:00+18sw554235 0.0 10191935
18:00+16sw35490 0.0 1020425
21:00+14w23575 0.0 102188